Oakland, MD

5:04 PM EST on December 14, 2017 (GMT -0500)
Oakland

Weather History for K2G4 - February, 2014

Change the Weather History Date:

Wednesday, February 5, 2014

  Actual Average (KMGW) Record (KMGW)
Temperature  
Mean Temperature 25 °F -  
Max Temperature 33 °F 37 °F 64 °F (1986)
Min Temperature 17 °F 22 °F -1 °F (1996)
Degree Days  
Heating Degree Days 40    
Moisture  
Dew Point 20 °F    
Average Humidity 100    
Maximum Humidity 100    
Minimum Humidity 100    
Precipitation  
Precipitation 0.00 in - - ()
Sea Level Pressure  
Sea Level Pressure 29.81 in    
Wind  
Wind Speed 5 mph (SE)    
Max Wind Speed 17 mph    
Max Gust Speed 23 mph    
Visibility 2 miles    
Events Fog    
Averages and records for this station are not official NWS values.
T = Trace of Precipitation, MM = Missing Value Source: NWS Daily Summary

Daily Weather History Graph

Daily Weather History Graph

Search for Another Location

Airport or City:

Trip Planner

Search our weather history database for the weather conditions in past years. The results will help you decide how hot, cold, wet, or windy it might be!

Date:

Astronomy

Feb. 05, 2014 Rise Set
Actual Time 7:21 AM EST 5:42 PM EST
Civil Twilight 6:52 AM EST 6:10 PM EST
Nautical Twilight 6:20 AM EST 6:42 PM EST
Astronomical Twilight 5:49 AM EST 7:13 PM EST
Moon 10:36 AM EST (2/5) No Moon Set
Length of Visible Light 11h 17m
Length of Day
10h 21m
Waxing Crescent, 39% of the Moon is Illuminated
Feb 5
Waxing Crescent
Feb 6
First Quarter
Feb 14
Full
Feb 22
Last Quarter
Mar 1
New

Hourly Weather History & Observations

Time (EST) Temp. Windchill Dew Point Humidity Pressure Visibility Wind Dir Wind Speed Gust Speed Precip Events Conditions
12:15 AM 23.0 °F 17.0 °F 23.0 °F 100% 29.90 in 2.0 mi ESE 4.6 mph - N/A   Overcast
12:35 AM 23.0 °F 14.7 °F 23.0 °F 100% 29.88 in 1.5 mi ESE 6.9 mph - N/A   Overcast
12:55 AM 23.0 °F 15.8 °F 23.0 °F 100% 29.89 in 1.8 mi ESE 5.8 mph - N/A   Overcast
1:15 AM 23.0 °F 15.8 °F 23.0 °F 100% 29.87 in 3.0 mi ESE 5.8 mph - N/A   Overcast
1:35 AM 23.0 °F 17.0 °F 23.0 °F 100% 29.85 in 1.8 mi ESE 4.6 mph - N/A   Overcast
1:55 AM 24.8 °F 19.1 °F 24.8 °F 100% 29.85 in 0.2 mi ESE 4.6 mph - N/A Fog Light Freezing Fog
2:15 AM 26.6 °F 21.2 °F - N/A% 29.87 in 0.8 mi ESE 4.6 mph - N/A   Overcast
2:35 AM 28.4 °F 22.2 °F - N/A% 29.81 in 1.2 mi ESE 5.8 mph - N/A   Overcast
2:55 AM 30.2 °F 26.7 °F - N/A% 29.80 in 3.0 mi SE 3.5 mph - N/A   Overcast
3:15 AM 30.2 °F 25.4 °F - N/A% 29.81 in 3.0 mi SE 4.6 mph - N/A   Overcast
3:35 AM 30.2 °F - - N/A% 29.84 in 2.5 mi Calm Calm - N/A   Overcast
3:55 AM 30.2 °F 24.3 °F - N/A% 29.81 in 3.0 mi SE 5.8 mph - N/A   Overcast
4:15 AM 30.2 °F 25.4 °F - N/A% 29.80 in 3.0 mi SSE 4.6 mph - N/A   Overcast
4:35 AM 30.2 °F 26.7 °F - N/A% 29.79 in 1.5 mi SE 3.5 mph - N/A   Overcast
4:55 AM 30.2 °F 26.7 °F - N/A% 29.76 in 1.0 mi SE 3.5 mph - N/A   Overcast
5:15 AM 30.2 °F 26.7 °F - N/A% 29.74 in 2.5 mi SE 3.5 mph - N/A   Overcast
5:35 AM 30.2 °F 25.4 °F - N/A% 29.72 in 2.0 mi SE 4.6 mph - N/A   Overcast
5:55 AM 30.2 °F 25.4 °F - N/A% 29.72 in 1.2 mi SE 4.6 mph - N/A   Overcast
6:15 AM 30.2 °F 25.4 °F - N/A% 29.69 in 1.2 mi SE 4.6 mph - N/A   Overcast
6:35 AM 30.2 °F 25.4 °F - N/A% 29.69 in 3.0 mi SE 4.6 mph - N/A   Overcast
6:55 AM 30.2 °F 26.7 °F - N/A% 29.66 in 1.5 mi SSE 3.5 mph - N/A   Overcast
7:15 AM 30.2 °F 25.4 °F - N/A% 29.65 in 1.2 mi SE 4.6 mph - N/A   Overcast
7:35 AM 30.2 °F - - N/A% 29.64 in 0.5 mi Calm Calm - N/A Fog Light Freezing Fog
7:55 AM 30.2 °F - - N/A% 29.64 in 0.5 mi Calm Calm - N/A Fog Light Freezing Fog
8:15 AM 28.4 °F - - N/A% 29.63 in 0.2 mi Calm Calm - N/A Fog Light Freezing Fog
8:35 AM 30.2 °F - - N/A% 29.62 in 0.5 mi Calm Calm - N/A Fog Light Freezing Fog
8:55 AM 30.2 °F - - N/A% 29.62 in 0.2 mi Calm Calm - N/A Fog Light Freezing Fog
9:15 AM 32.0 °F - - N/A% 29.62 in 0.2 mi Calm Calm - N/A Fog Light Freezing Fog
9:35 AM 33.8 °F - - N/A% 29.61 in 0.2 mi Calm Calm - N/A Fog Fog
9:00 PM - - - N/A% 29.96 in - WNW 15.0 mph - N/A   Unknown
9:20 PM 17.6 °F 2.2 °F 17.6 °F 100% 29.97 in 5.0 mi WNW 17.3 mph 23.0 mph N/A   Scattered Clouds
9:40 PM 17.6 °F 6.4 °F 17.6 °F 100% 29.99 in 7.0 mi WNW 9.2 mph 21.9 mph N/A   Overcast
10:00 PM 17.6 °F 5.7 °F 17.6 °F 100% 30.00 in 2.0 mi WNW 10.4 mph 16.1 mph N/A   Overcast
10:20 PM 17.6 °F 5.0 °F 17.6 °F 100% 30.01 in 1.8 mi West 11.5 mph 20.7 mph N/A   Overcast
10:40 PM 17.6 °F 4.3 °F 17.6 °F 100% 30.03 in 1.5 mi WNW 12.7 mph 18.4 mph N/A   Overcast
11:00 PM 17.6 °F 6.4 °F 17.6 °F 100% 30.04 in 1.8 mi WNW 9.2 mph 21.9 mph N/A   Overcast
11:20 PM 17.6 °F 5.7 °F 17.6 °F 100% 30.04 in 1.8 mi WNW 10.4 mph 17.3 mph N/A   Overcast
11:40 PM 17.6 °F 5.7 °F 17.6 °F 100% 30.04 in 2.0 mi NW 10.4 mph 20.7 mph N/A   Overcast